sat.trackr.live / text

‹ back to catalog

2023-091V

NORAD 57185 · 2023-091V

PAYLOAD ACTIVE UNKNOWN

§ Identity

Operator
Country
TBD
Launch date
2023-06-27
Launch site
VOSTO
Launch vehicle
Mass (kg)
RCS (m²)

External: N2YO · Heavens-Above · Gunter

§ Orbital elements

Epoch: 2026-05-25T03:42:07.221600Z

Period
93.60 min
Inclination
97.5072°
Eccentricity
0.0008057
Mean motion
15.38399842 rev/d
Perigee alt
445.3 km
Apogee alt
456.3 km
Semi-major
6,829.0 km
B*
5.3436e-4
RAAN
215.3007°
Arg perigee
149.5853°
Mean anomaly
210.5861°
Rev number
16,123

§ Raw data

2023-091V1 57185U 23091V   26145.15425025  .00020200  00000+0  53436-3 0  99902 57185  97.5072 215.3007 0008057 149.5853 210.5861 15.38399842161239

JSON: /api/v1/satellites/57185 · /tle

For live sub-satellite position, see the globe view (requires WebGL).

§ Visibility from observer

Set your observer location to see the next 7 days of passes ≥ 10°. The values pass through the URL so the page stays shareable.

No JS? Fill the form by hand. The geolocation button needs JavaScript.